RJOK

Kochi Airport

Airport
ICAO code
RJOK
IATA Code
KCZ
Summary
ICAO Region
APAC
ICAO Territory
Location

Nankoku, Kochi Prefecture

Serving
Kochi
Elevation
29 ft
Coordinates
33° 32' 51" N , 133° 40' 27" E
KCC
Metar
RJOK 202225Z 35002KT 4000 -RA BR FEW002 SCT006 BKN009 16/16 Q1018 RMK 1ST002 4ST006 5ST009 A3007

Kōchi Airport, also known as Kōchi Ryōma Airport, is a regional airport in Nankoku, a city in Kōchi Prefecture of Japan. It is located on the southeastern coast, 13km east of the city of Kōchi.

Climatology

Humid Sub-tropical climate (Köppen climate classification Cfa)

Runways

Designator Length Width Surface Rops
14/32 2500 45 ASP Yes/Yes

Airport map

Aerial View

SKYbrary Partners:

Safety knowledge contributed by: